Location: *
(48.7358°N, 0.3111°E)
Time: 03:35:41
(UTC+00:00)

NOSS 3-4 (C) - Pass Details

Date: 22 October 2019
Orbit: 908 x 1304 km, 63.4° (Epoch: 10 November)

Event Time Altitude Azimuth Distance (km) Brightness Sun altitude
Exits shadow 03:43:00 55° 180° (S) 1,118 3.6 -27.8°
Maximum altitude 03:44:12 68° 126° (SE) 1,011 3.6 -27.7°
Drops below altitude 10° 03:50:34 10° 45° (NE) 2,766 6.6 -26.6°
Sets 03:53:16 0° 43° (NE) 3,773 7.4 -26.2°
